Location: Unspecified
(0.0000°N, 0.0000°E)
Time: 15:14:30
(UTC+00:00)

CZ-4 DEB - Pass Details

Date: 27 June 2024
Orbit: 785 x 976 km, 99.1° (Epoch: 18 July)

Event Time Altitude Azimuth Distance (km) Brightness Sun altitude
Exits shadow 20:45:47 35° 252° (WSW) 1,513 ? -36.7°
Maximum altitude 20:45:59 35° 257° (WSW) 1,511 ? -36.8°
Drops below altitude 10° 20:51:30 10° 321° (NW) 2,716 ? -38.0°
Sets 20:54:11 0° 330° (NNW) 3,657 ? -38.6°
